Location: Biharia
(46.4333°N, 22.8000°E)
Time: 03:28:40
(UTC+00:00)

Cosmos 494 Rocket - Pass Details

Date: 27 May 2022
Orbit: 742 x 770 km, 74.1° (Epoch: 05 July)

Event Time Altitude Azimuth Distance (km) Brightness Sun altitude
Rises 20:26:19 0° 351° (N) 3,195 8.6 -17.0°
Reaches altitude 10° 20:30:39 10° 26° (NNE) 2,264 6.9 -17.3°
Maximum altitude 20:32:11 11° 44° (NE) 2,177 6.6 -17.4°
Drops below altitude 10° 20:33:44 10° 61° (ENE) 2,261 6.4 -17.6°
Enters shadow 20:36:47 - 88° (E) 2,841 6.7 -17.8°
